Project,Study,Ord_Occ,Event_Num,Cast_ID,Date_Time_UTC,Date_Time_PST,Lat_Dec,Lon_Dec,Sta_ID,Line,Sta,Depth,Pressure,PrQ,Temp1,Temp1Q,Temp2,Temp2Q,TempAve,Salt1,Salt1Q,Salt1_Corr,Salt2,Salt2Q,Salt2_Corr,SaltAve_Corr,Ox1,Ox1Q,Ox1_CruiseCorr,Ox1_StaCorr,Ox2,Ox2Q,Ox2_CruiseCorr,Ox2_StaCorr,OxAve_StaCorr,Ox1uM,Ox1uM_CruiseCorr,Ox1uM_StaCorr,Ox2uM,Ox2uM_CruiseCorr,Ox2uM_StaCorr,OxAveuM_StaCorr,FluorV,FluorQ,EstChl_CruiseCorr,EstChl_StaCorr,ISUSV,ISUSQ,EstNO3_CruiseCorr,EstNO3_StaCorr,SigThetaTS1,SigThetaTS1Q,SigThetaTS2,SigThetaTS2Q,BAT,XMiss,TransQ,pH,pHQ,SPAR,SPARQ,PAR,PARQ,PoT1,PoT2,DynHt,SVA,OxSat1,OxSat2,BTL_Depth,BTL_Temp,SaltB,OxB,OxBuM,Chl-a,Phaeo,NO3,NO2,NH4,PO4,SIL
CalCOFI,2101RL,005,,2101_005u,16-Jan-2021 19:44:58,16-Jan-2021 11:44:58,32.84798,-117.52589,093.3 030.0,093.3,030.0,518.000,522.330,,6.6898,,6.6905,,6.6902,34.2767,,34.2825,34.2690,,34.2710,34.2768,0.4161,,0.4354,0.4488,0.4236,,0.4479,0.4596,0.4542,18.095,19.2020,19.6223,18.421,20.5743,20.0934,19.8579,,,,, ,, , ,26.8976,,26.8915,,0.6867,84.2245,,,,2.0188E+03,,1.5459E-04,,6.6414,6.6422,0.9172,122.598,6.090,6.200,,,,,,,,,,,,
CalCOFI,2101RL,005,,2101_005u,16-Jan-2021 19:45:04,16-Jan-2021 11:45:04,32.84797,-117.52586,093.3 030.0,093.3,030.0,517.000,521.320,,6.7037,,6.7050,,6.7044,34.2772,,34.2830,34.2694,,34.2714,34.2772,0.4159,,0.4352,0.4486,0.4218,,0.4460,0.4578,0.4532,18.088,19.1947,19.6151,18.346,20.5665,20.0154,19.8153,,,,, ,, , ,26.8961,,26.8898,,0.6857,84.2448,,,,2.0176E+03,,3.3612E-04,,6.6555,6.6568,0.9172,122.739,6.090,6.176,,,,,,,,,,,,
CalCOFI,2101RL,005,,2101_005u,16-Jan-2021 19:45:08,16-Jan-2021 11:45:08,32.84796,-117.52584,093.3 030.0,093.3,030.0,516.000,520.311,,6.7057,,6.7071,,6.7064,34.2772,,34.2830,34.2694,,34.2714,34.2772,0.4189,,0.4383,0.4517,0.4231,,0.4474,0.4591,0.4554,18.219,19.3318,19.7499,18.400,20.7122,20.0715,19.9107,,,,, ,, , ,26.8959,,26.8896,,0.6853,84.2546,,,,2.0173E+03,,3.9159E-04,,6.6575,6.6589,0.9172,122.749,6.134,6.195,516,,34.2815,0.441,19.23,,,,,,,
CalCOFI,2101RL,005,,2101_005u,16-Jan-2021 19:45:10,16-Jan-2021 11:45:10,32.84796,-117.52584,093.3 030.0,093.3,030.0,515.000,519.301,,6.7225,,6.7159,,6.7192,34.2780,,34.2838,34.2699,,34.2719,34.2779,0.4223,,0.4419,0.4552,0.4203,,0.4444,0.4562,0.4557,18.366,19.4857,19.9011,18.279,20.8757,19.9457,19.9234,,,,, ,, , ,26.8942,,26.8888,,0.6851,84.2575,,,,2.0173E+03,,4.2933E-04,,6.6744,6.6678,0.9172,122.908,6.186,6.156,,,,,,,,,,,,
CalCOFI,2101RL,005,,2101_005u,16-Jan-2021 19:45:11,16-Jan-2021 11:45:11,32.84796,-117.52584,093.3 030.0,093.3,030.0,514.000,518.291,,6.7561,,6.7436,,6.7499,34.2801,,34.2859,34.2726,,34.2746,34.2803,0.4203,,0.4398,0.4531,0.4235,,0.4478,0.4595,0.4563,18.281,19.3968,19.8137,18.419,20.7812,20.0913,19.9525,,,,, ,, , ,26.8914,,26.8872,,0.6838,84.2857,,,,2.0173E+03,,-5.650E-06,,6.7079,6.6955,0.9172,123.204,6.162,6.207,,,,,,,,,,,,
CalCOFI,2101RL,005,,2101_005u,16-Jan-2021 19:45:12,16-Jan-2021 11:45:12,32.84796,-117.52584,093.3 030.0,093.3,030.0,513.000,517.282,,6.7839,,6.7792,,6.7816,34.2818,,34.2876,34.2740,,34.2760,34.2818,0.4276,,0.4474,0.4606,0.4281,,0.4527,0.4643,0.4625,18.598,19.7286,20.1399,18.617,21.1337,20.2972,20.2186,,,,, ,, , ,26.8890,,26.8835,,0.6825,84.3137,,,,2.0182E+03,,1.0000E-12,,6.7357,6.7311,0.9172,123.442,6.273,6.279,,,,,,,,,,,,
CalCOFI,2101RL,005,,2101_005u,16-Jan-2021 19:45:13,16-Jan-2021 11:45:13,32.84796,-117.52584,093.3 030.0,093.3,030.0,512.000,516.272,,6.8163,,6.8204,,6.8184,34.2844,,34.2902,34.2762,,34.2782,34.2842,0.4353,,0.4555,0.4686,0.4366,,0.4617,0.4731,0.4709,18.930,20.0761,20.4816,18.988,21.5029,20.6830,20.5823,,,,, ,, , ,26.8867,,26.8797,,0.6824,84.3164,,,,2.0192E+03,,1.0000E-12,,6.7681,6.7722,0.9172,123.685,6.390,6.410,,,,,,,,,,,,
CalCOFI,2101RL,005,,2101_005u,16-Jan-2021 19:45:14,16-Jan-2021 11:45:14,32.84796,-117.52584,093.3 030.0,093.3,030.0,511.000,515.263,,6.8552,,6.8476,,6.8514,34.2842,,34.2900,34.2760,,34.2780,34.2840,0.4416,,0.4621,0.4750,0.4353,,0.4603,0.4718,0.4734,19.206,20.3650,20.7656,18.931,21.8098,20.6238,20.6947,,,,, ,, , ,26.8813,,26.8758,,0.6823,84.3175,,,,2.0176E+03,,1.0000E-12,,6.8070,6.7994,0.9172,124.228,6.489,6.394,,,,,,,,,,,,
CalCOFI,2101RL,005,,2101_005u,16-Jan-2021 19:45:15,16-Jan-2021 11:45:15,32.84796,-117.52582,093.3 030.0,093.3,030.0,510.000,514.253,,6.8697,,6.8648,,6.8673,34.2818,,34.2876,34.2748,,34.2768,34.2822,0.4461,,0.4668,0.4797,0.4402,,0.4655,0.4769,0.4783,19.402,20.5702,20.9673,19.146,22.0277,20.8473,20.9073,,,,, ,, , ,26.8774,,26.8726,,0.6821,84.3239,,,,2.0173E+03,,1.0000E-12,,6.8215,6.8166,0.9172,124.590,6.557,6.470,,,,,,,,,,,,
CalCOFI,2101RL,005,,2101_005u,16-Jan-2021 19:45:16,16-Jan-2021 11:45:16,32.84796,-117.52582,093.3 030.0,093.3,030.0,509.000,513.243,,6.8772,,6.8782,,6.8777,34.2797,,34.2855,34.2725,,34.2745,34.2800,0.4462,,0.4669,0.4798,0.4386,,0.4638,0.4752,0.4775,19.407,20.5754,20.9724,19.076,22.0333,20.7745,20.8735,,,,, ,, , ,26.8747,,26.8689,,0.6836,84.2898,,,,2.0173E+03,,1.0000E-12,,6.8290,6.8301,0.9172,124.836,6.560,6.448,,,,,,,,,,,,
CalCOFI,2101RL,005,,2101_005u,16-Jan-2021 19:45:17,16-Jan-2021 11:45:17,32.84796,-117.52582,093.3 030.0,093.3,030.0,508.000,512.234,,6.8812,,6.8801,,6.8807,34.2784,,34.2842,34.2710,,34.2730,34.2786,0.4502,,0.4711,0.4839,0.4471,,0.4729,0.4840,0.4840,19.578,20.7545,21.1484,19.445,22.2235,21.1583,21.1534,,,,, ,, , ,26.8732,,26.8674,,0.6845,84.2717,,,,2.0173E+03,,1.0000E-12,,6.8332,6.8321,0.9172,124.973,6.618,6.573,,,,,,,,,,,,
CalCOFI,2101RL,005,,2101_005u,16-Jan-2021 19:45:18,16-Jan-2021 11:45:18,32.84796,-117.52582,093.3 030.0,093.3,030.0,507.000,511.224,,6.8783,,6.8779,,6.8781,34.2777,,34.2835,34.2706,,34.2726,34.2781,0.4519,,0.4729,0.4856,0.4494,,0.4753,0.4864,0.4860,19.652,20.8319,21.2246,19.547,22.3057,21.2644,21.2445,,,,, ,, , ,26.8729,,26.8675,,0.6840,84.2831,,,,2.0176E+03,,3.3722E-04,,6.8304,6.8300,0.9172,124.976,6.643,6.607,,,,,,,,,,,,
CalCOFI,2101RL,005,,2101_005u,16-Jan-2021 19:45:19,16-Jan-2021 11:45:19,32.84796,-117.52582,093.3 030.0,093.3,030.0,506.000,510.215,,6.8790,,6.8786,,6.8788,34.2764,,34.2822,34.2692,,34.2712,34.2767,0.4553,,0.4764,0.4891,0.4543,,0.4805,0.4915,0.4903,19.800,20.9868,21.3769,19.758,22.4703,21.4838,21.4304,,,,, ,, , ,26.8718,,26.8662,,0.6839,84.2852,,,,2.0193E+03,,-2.858E-06,,6.8311,6.8308,0.9172,125.064,6.693,6.678,,,,,,,,,,,,
CalCOFI,2101RL,005,,2101_005u,16-Jan-2021 19:45:20,16-Jan-2021 11:45:20,32.84796,-117.52582,093.3 030.0,093.3,030.0,505.000,509.205,,6.8771,,6.8787,,6.8779,34.2750,,34.2808,34.2677,,34.2697,34.2753,0.4541,,0.4752,0.4879,0.4560,,0.4823,0.4933,0.4906,19.751,20.9355,21.3264,19.832,22.4158,21.5607,21.4436,,,,, ,, , ,26.8710,,26.8650,,0.6847,84.2672,,,,2.0210E+03,,1.5843E-03,,6.8293,6.8310,0.9172,125.124,6.676,6.703,,,,,,,,,,,,
CalCOFI,2101RL,005,,2101_005u,16-Jan-2021 19:45:21,16-Jan-2021 11:45:21,32.84796,-117.52582,093.3 030.0,093.3,030.0,504.000,508.196,,6.8779,,6.8780,,6.8780,34.2746,,34.2804,34.2671,,34.2691,34.2748,0.4561,,0.4773,0.4900,0.4592,,0.4857,0.4966,0.4933,19.836,21.0245,21.4139,19.974,22.5104,21.7084,21.5612,,,,, ,, , ,26.8705,,26.8646,,0.6857,84.2459,,,,2.0208E+03,,3.1252E-03,,6.8303,6.8304,0.9172,125.153,6.705,6.751,,,,,,,,,,,,
CalCOFI,2101RL,005,,2101_005u,16-Jan-2021 19:45:22,16-Jan-2021 11:45:22,32.84796,-117.52582,093.3 030.0,093.3,030.0,503.000,507.186,,6.8771,,6.8791,,6.8781,34.2743,,34.2801,34.2669,,34.2689,34.2745,0.4571,,0.4783,0.4910,0.4541,,0.4803,0.4913,0.4912,19.879,21.0695,21.4582,19.749,22.5582,21.4744,21.4663,,,,, ,, , ,26.8704,,26.8643,,0.6862,84.2353,,,,2.0192E+03,,2.8365E-03,,6.8296,6.8316,0.9172,125.148,6.719,6.675,,,,,,,,,,,,
CalCOFI,2101RL,005,,2101_005u,16-Jan-2021 19:45:23,16-Jan-2021 11:45:23,32.84796,-117.52582,093.3 030.0,093.3,030.0,502.000,506.177,,6.8779,,6.8788,,6.8784,34.2739,,34.2797,34.2667,,34.2687,34.2742,0.4578,,0.4790,0.4917,0.4689,,0.4960,0.5067,0.4992,19.912,21.1041,21.4921,20.395,22.5949,22.1462,21.8192,,,,, ,, , ,26.8700,,26.8642,,0.6864,84.2306,,,,2.0177E+03,,4.1968E-03,,6.8305,6.8313,0.9172,125.174,6.731,6.893,,,,,,,,,,,,
CalCOFI,2101RL,005,,2101_005u,16-Jan-2021 19:45:24,16-Jan-2021 11:45:24,32.84796,-117.52582,093.3 030.0,093.3,030.0,501.000,505.167,,6.8779,,6.8794,,6.8787,34.2736,,34.2794,34.2662,,34.2682,34.2738,0.4618,,0.4832,0.4958,0.4724,,0.4997,0.5103,0.5031,20.084,21.2841,21.6691,20.544,22.7861,22.3012,21.9852,,,,, ,, , ,26.8697,,26.8637,,0.6864,84.2307,,,,2.0169E+03,,4.1830E-03,,6.8306,6.8321,0.9172,125.183,6.789,6.944,,,,,,,,,,,,
CalCOFI,2101RL,005,,2101_005u,16-Jan-2021 19:45:24,16-Jan-2021 11:45:24,32.84796,-117.52582,093.3 030.0,093.3,030.0,500.000,504.157,,6.8778,,6.8791,,6.8785,34.2735,,34.2793,34.2658,,34.2678,34.2736,0.4612,,0.4826,0.4952,0.4619,,0.4886,0.4994,0.4973,20.058,21.2569,21.6424,20.089,22.7572,21.8280,21.7352,,,,, ,, , ,26.8696,,26.8634,,0.6864,84.2307,,,,2.0155E+03,,4.1929E-03,,6.8305,6.8319,0.9172,125.173,6.780,6.790,,,,,,,,,,,,
CalCOFI,2101RL,005,,2101_005u,16-Jan-2021 19:45:25,16-Jan-2021 11:45:25,32.84796,-117.52582,093.3 030.0,093.3,030.0,499.000,503.148,,6.8770,,6.8779,,6.8775,34.2730,,34.2788,34.2655,,34.2675,34.2732,0.4581,,0.4793,0.4920,0.4660,,0.4929,0.5037,0.4979,19.923,21.1156,21.5034,20.265,22.6071,22.0110,21.7572,,,,, ,, , ,26.8693,,26.8633,,0.6876,84.2070,,,,2.0155E+03,,2.9322E-03,,6.8299,6.8308,0.9172,125.185,6.734,6.850,,,,,,,,,,,,
CalCOFI,2101RL,005,,2101_005u,16-Jan-2021 19:45:26,16-Jan-2021 11:45:26,32.84796,-117.52582,093.3 030.0,093.3,030.0,498.000,502.138,,6.8770,,6.8777,,6.8774,34.2727,,34.2785,34.2651,,34.2671,34.2728,0.4574,,0.4786,0.4913,0.4618,,0.4885,0.4993,0.4953,19.895,21.0863,21.4746,20.084,22.5760,21.8228,21.6487,,,,, ,, , ,26.8691,,26.8630,,0.6876,84.2072,,,,2.0155E+03,,6.7245E-07,,6.8299,6.8307,0.9172,125.189,6.725,6.789,,,,,,,,,,,,
CalCOFI,2101RL,005,,2101_005u,16-Jan-2021 19:45:26,16-Jan-2021 11:45:26,32.84796,-117.52582,093.3 030.0,093.3,030.0,497.000,501.129,,6.8770,,6.8777,,6.8774,34.2726,,34.2784,34.2648,,34.2668,34.2726,0.4574,,0.4786,0.4913,0.4644,,0.4912,0.5020,0.4967,19.893,21.0842,21.4726,20.201,22.5737,21.9445,21.7086,,,,, ,, , ,26.8690,,26.8627,,0.6876,84.2072,,,,2.0155E+03,,5.2113E-03,,6.8301,6.8308,0.9172,125.188,6.724,6.828,,,,,,,,,,,,
CalCOFI,2101RL,005,,2101_005u,16-Jan-2021 19:45:27,16-Jan-2021 11:45:27,32.84796,-117.52582,093.3 030.0,093.3,030.0,496.000,500.119,,6.8768,,6.8774,,6.8771,34.2724,,34.2782,34.2648,,34.2668,34.2725,0.4574,,0.4786,0.4913,0.4609,,0.4875,0.4984,0.4949,19.892,21.0831,21.4715,20.047,22.5726,21.7843,21.6279,,,,, ,, , ,26.8689,,26.8628,,0.6880,84.1986,,,,2.0155E+03,,5.8384E-03,,6.8300,6.8306,0.9172,125.180,6.724,6.776,,,,,,,,,,,,
CalCOFI,2101RL,005,,2101_005u,16-Jan-2021 19:45:27,16-Jan-2021 11:45:27,32.84796,-117.52582,093.3 030.0,093.3,030.0,495.000,499.110,,6.8751,,6.8760,,6.8756,34.2721,,34.2779,34.2642,,34.2662,34.2721,0.4613,,0.4827,0.4953,0.4609,,0.4875,0.4984,0.4969,20.064,21.2632,21.6485,20.045,22.7639,21.7822,21.7154,,,,, ,, , ,26.8688,,26.8625,,0.6881,84.1969,,,,2.0155E+03,,2.8680E-03,,6.8284,6.8293,0.9172,125.168,6.781,6.775,,,,,,,,,,,,
CalCOFI,2101RL,005,,2101_005u,16-Jan-2021 19:45:28,16-Jan-2021 11:45:28,32.84796,-117.52582,093.3 030.0,093.3,030.0,494.000,498.100,,6.8747,,6.8754,,6.8751,34.2719,,34.2777,34.2641,,34.2661,34.2719,0.4629,,0.4844,0.4970,0.4608,,0.4874,0.4983,0.4977,20.134,21.3365,21.7206,20.043,22.8417,21.7802,21.7504,,,,, ,, , ,26.8687,,26.8625,,0.6873,84.2133,,,,2.0170E+03,,6.1183E-03,,6.8280,6.8288,0.9172,125.163,6.805,6.774,,,,,,,,,,,,
CalCOFI,2101RL,005,,2101_005u,16-Jan-2021 19:45:29,16-Jan-2021 11:45:29,32.84796,-117.52582,093.3 030.0,093.3,030.0,493.000,497.091,,6.8746,,6.8750,,6.8748,34.2718,,34.2776,34.2639,,34.2659,34.2718,0.4617,,0.4831,0.4957,0.4625,,0.4892,0.5001,0.4979,20.079,21.2789,21.6640,20.117,22.7806,21.8571,21.7606,,,,, ,, , ,26.8686,,26.8624,,0.6877,84.2054,,,,2.0168E+03,,7.3312E-03,,6.8280,6.8285,0.9172,125.155,6.786,6.799,,,,,,,,,,,,
CalCOFI,2101RL,005,,2101_005u,16-Jan-2021 19:45:30,16-Jan-2021 11:45:30,32.84796,-117.52582,093.3 030.0,093.3,030.0,492.000,496.081,,6.8747,,6.8759,,6.8753,34.2720,,34.2778,34.2644,,34.2664,34.2721,0.4623,,0.4837,0.4963,0.4605,,0.4871,0.4980,0.4972,20.108,21.3093,21.6938,20.028,22.8128,21.7646,21.7292,,,,, ,, , ,26.8688,,26.8626,,0.6881,84.1972,,,,2.0177E+03,,8.6107E-03,,6.8283,6.8294,0.9172,125.124,6.796,6.769,,,,,,,,,,,,
CalCOFI,2101RL,005,,2101_005u,16-Jan-2021 19:45:32,16-Jan-2021 11:45:32,32.84796,-117.52582,093.3 030.0,093.3,030.0,491.000,495.072,,6.8738,,6.8749,,6.8744,34.2714,,34.2772,34.2637,,34.2657,34.2715,0.4645,,0.4860,0.4986,0.4638,,0.4906,0.5014,0.5000,20.203,21.4087,21.7916,20.173,22.9185,21.9154,21.8535,,,,, ,, , ,26.8684,,26.8622,,0.6876,84.2074,,,,2.0179E+03,,8.5346E-03,,6.8274,6.8286,0.9172,125.141,6.828,6.818,,,,,,,,,,,,
CalCOFI,2101RL,005,,2101_005u,16-Jan-2021 19:45:33,16-Jan-2021 11:45:33,32.84796,-117.52582,093.3 030.0,093.3,030.0,490.000,494.062,,6.8727,,6.8733,,6.8730,34.2702,,34.2760,34.2629,,34.2649,34.2705,0.4695,,0.4913,0.5037,0.4746,,0.5021,0.5126,0.5082,20.419,21.6348,22.0139,20.642,23.1587,22.4031,22.2085,,,,, ,, , ,26.8676,,26.8617,,0.6876,84.2072,,,,2.0192E+03,,5.6367E-03,,6.8264,6.8270,0.9172,125.200,6.901,6.976,,,,,,,,,,,,
CalCOFI,2101RL,005,,2101_005u,16-Jan-2021 19:45:34,16-Jan-2021 11:45:34,32.84796,-117.52582,093.3 030.0,093.3,030.0,489.000,493.053,,6.8727,,6.8730,,6.8729,34.2696,,34.2754,34.2622,,34.2642,34.2698,0.4679,,0.4896,0.5021,0.4678,,0.4949,0.5056,0.5039,20.348,21.5605,21.9408,20.344,23.0797,22.0932,22.0170,,,,, ,, , ,26.8671,,26.8612,,0.6876,84.2072,,,,2.0192E+03,,1.4691E-02,,6.8266,6.8269,0.9172,125.231,6.877,6.875,,,,,,,,,,,,
CalCOFI,2101RL,005,,2101_005u,16-Jan-2021 19:45:34,16-Jan-2021 11:45:34,32.84796,-117.52578,093.3 030.0,093.3,030.0,488.000,492.043,,6.8733,,6.8736,,6.8735,34.2689,,34.2747,34.2613,,34.2633,34.2690,0.4752,,0.4972,0.5096,0.4739,,0.5013,0.5119,0.5108,20.669,21.8965,22.2711,20.612,23.4367,22.3719,22.3215,,,,, ,, , ,26.8665,,26.8604,,0.6876,84.2072,,,,2.0192E+03,,9.3472E-03,,6.8272,6.8276,0.9172,125.273,6.985,6.966,,,,,,,,,,,,
CalCOFI,2101RL,005,,2101_005u,16-Jan-2021 19:45:35,16-Jan-2021 11:45:35,32.84796,-117.52578,093.3 030.0,093.3,030.0,487.000,491.034,,6.8746,,6.8750,,6.8748,34.2684,,34.2742,34.2609,,34.2629,34.2686,0.4782,,0.5004,0.5127,0.4799,,0.5077,0.5181,0.5154,20.798,22.0315,22.4039,20.873,23.5801,22.6433,22.5236,,,,, ,, , ,26.8659,,26.8599,,0.6876,84.2072,,,,2.0181E+03,,1.0415E-02,,6.8287,6.8290,0.9172,125.319,7.029,7.054,,,,,,,,,,,,
CalCOFI,2101RL,005,,2101_005u,16-Jan-2021 19:45:36,16-Jan-2021 11:45:36,32.84796,-117.52578,093.3 030.0,093.3,030.0,486.000,490.024,,6.8807,,6.8824,,6.8816,34.2681,,34.2739,34.2603,,34.2623,34.2681,0.4756,,0.4977,0.5100,0.4731,,0.5005,0.5111,0.5106,20.686,21.9143,22.2886,20.576,23.4556,22.3345,22.3116,,,,, ,, , ,26.8648,,26.8584,,0.6886,84.1850,,,,2.0167E+03,,1.2672E-02,,6.8348,6.8365,0.9172,125.411,6.992,6.955,,,,,,,,,,,,
CalCOFI,2101RL,005,,2101_005u,16-Jan-2021 19:45:36,16-Jan-2021 11:45:36,32.84796,-117.52578,093.3 030.0,093.3,030.0,485.000,489.015,,6.8864,,6.8858,,6.8861,34.2679,,34.2737,34.2601,,34.2621,34.2679,0.4731,,0.4950,0.5074,0.4733,,0.5007,0.5113,0.5094,20.573,21.7960,22.1724,20.584,23.3299,22.3428,22.2576,,,,, ,, , ,26.8638,,26.8578,,0.6878,84.2038,,,,2.0155E+03,,8.0153E-03,,6.8406,6.8400,0.9172,125.491,6.955,6.958,,,,,,,,,,,,
CalCOFI,2101RL,005,,2101_005u,16-Jan-2021 19:45:37,16-Jan-2021 11:45:37,32.84796,-117.52578,093.3 030.0,093.3,030.0,484.000,488.005,,6.8888,,6.8890,,6.8889,34.2677,,34.2735,34.2600,,34.2620,34.2678,0.4793,,0.5015,0.5138,0.4827,,0.5107,0.5210,0.5174,20.843,22.0787,22.4502,20.995,23.6302,22.7702,22.6102,,,,, ,, , ,26.8634,,26.8573,,0.6878,84.2022,,,,2.0155E+03,,1.1927E-02,,6.8431,6.8433,0.9172,125.520,7.047,7.098,,,,,,,,,,,,
CalCOFI,2101RL,005,,2101_005u,16-Jan-2021 19:45:38,16-Jan-2021 11:45:38,32.84796,-117.52578,093.3 030.0,093.3,030.0,483.000,486.996,,6.8914,,6.8932,,6.8923,34.2676,,34.2734,34.2600,,34.2620,34.2677,0.4790,,0.5012,0.5135,0.4805,,0.5083,0.5188,0.5162,20.833,22.0682,22.4399,20.900,23.6190,22.6714,22.5557,,,,, ,, , ,26.8629,,26.8567,,0.6876,84.2072,,,,2.0144E+03,,1.3626E-02,,6.8457,6.8476,0.9172,125.551,7.044,7.066,,,,,,,,,,,,
CalCOFI,2101RL,005,,2101_005u,16-Jan-2021 19:45:39,16-Jan-2021 11:45:39,32.84796,-117.52578,093.3 030.0,093.3,030.0,482.000,485.986,,6.8946,,6.9021,,6.8984,34.2680,,34.2738,34.2600,,34.2620,34.2679,0.4750,,0.4970,0.5094,0.4747,,0.5022,0.5127,0.5111,20.659,21.8860,22.2609,20.646,23.4255,22.4073,22.3341,,,,, ,, , ,26.8628,,26.8555,,0.6877,84.2060,,,,2.0151E+03,,9.8446E-03,,6.8490,6.8565,0.9172,125.548,6.986,6.982,,,,,,,,,,,,
CalCOFI,2101RL,005,,2101_005u,16-Jan-2021 19:45:40,16-Jan-2021 11:45:40,32.84796,-117.52578,093.3 030.0,093.3,030.0,481.000,484.977,,6.9054,,6.9063,,6.9059,34.2678,,34.2736,34.2599,,34.2619,34.2678,0.4748,,0.4968,0.5092,0.4778,,0.5055,0.5160,0.5126,20.649,21.8756,22.2506,20.781,23.4144,22.5476,22.3991,,,,, ,, , ,26.8612,,26.8548,,0.6887,84.1838,,,,2.0155E+03,,4.0587E-03,,6.8599,6.8608,0.9172,125.699,6.984,7.028,,,,,,,,,,,,
CalCOFI,2101RL,005,,2101_005u,16-Jan-2021 19:45:41,16-Jan-2021 11:45:41,32.84796,-117.52578,093.3 030.0,093.3,030.0,480.000,483.968,,6.9001,,6.9028,,6.9015,34.2678,,34.2736,34.2597,,34.2617,34.2677,0.4748,,0.4968,0.5092,0.4750,,0.5025,0.5130,0.5111,20.651,21.8777,22.2526,20.659,23.4166,22.4208,22.3367,,,,, ,, , ,26.8618,,26.8551,,0.6877,84.2045,,,,2.0173E+03,,7.3999E-03,,6.8547,6.8575,0.9172,125.616,6.984,6.986,,,,,,,,,,,,
CalCOFI,2101RL,005,,2101_005u,16-Jan-2021 19:45:42,16-Jan-2021 11:45:42,32.84796,-117.52578,093.3 030.0,093.3,030.0,479.000,482.958,,6.8941,,6.8953,,6.8947,34.2681,,34.2739,34.2598,,34.2618,34.2679,0.4822,,0.5046,0.5168,0.4858,,0.5140,0.5243,0.5206,20.970,22.2116,22.5809,21.128,23.7714,22.9085,22.7447,,,,, ,, , ,26.8629,,26.8562,,0.6878,84.2028,,,,2.0195E+03,,4.6213E-03,,6.8488,6.8501,0.9172,125.496,7.090,7.144,,,,,,,,,,,,
CalCOFI,2101RL,005,,2101_005u,16-Jan-2021 19:45:44,16-Jan-2021 11:45:44,32.84796,-117.52578,093.3 030.0,093.3,030.0,478.000,481.949,,6.9035,,6.9052,,6.9044,34.2682,,34.2740,34.2602,,34.2622,34.2681,0.4877,,0.5103,0.5225,0.4851,,0.5132,0.5235,0.5230,21.209,22.4618,22.8269,21.100,24.0372,22.8794,22.8532,,,,, ,, , ,26.8616,,26.8551,,0.6880,84.1982,,,,2.0204E+03,,6.5607E-03,,6.8583,6.8600,0.9172,125.605,7.173,7.136,,,,,,,,,,,,
CalCOFI,2101RL,005,,2101_005u,16-Jan-2021 19:45:45,16-Jan-2021 11:45:45,32.84796,-117.52578,093.3 030.0,093.3,030.0,477.000,480.939,,6.9159,,6.9209,,6.9184,34.2676,,34.2734,34.2592,,34.2612,34.2673,0.4922,,0.5150,0.5271,0.4932,,0.5218,0.5320,0.5296,21.405,22.6670,23.0286,21.452,24.2551,23.2454,23.1370,,,,, ,, , ,26.8595,,26.8522,,0.6876,84.2061,,,,2.0210E+03,,5.4884E-03,,6.8708,6.8758,0.9172,125.803,7.241,7.257,,,,,,,,,,,,
CalCOFI,2101RL,005,,2101_005u,16-Jan-2021 19:45:45,16-Jan-2021 11:45:45,32.84796,-117.52578,093.3 030.0,093.3,030.0,476.000,479.930,,6.9405,,6.9433,,6.9419,34.2667,,34.2725,34.2590,,34.2610,34.2668,0.4918,,0.5146,0.5267,0.4874,,0.5157,0.5259,0.5263,21.388,22.6492,23.0111,21.198,24.2362,22.9813,22.9962,,,,, ,, , ,26.8555,,26.8490,,0.6890,84.1771,,,,2.0197E+03,,5.5865E-03,,6.8954,6.8982,0.9172,126.194,7.240,7.175,,,,,,,,,,,,
CalCOFI,2101RL,005,,2101_005u,16-Jan-2021 19:45:46,16-Jan-2021 11:45:46,32.84796,-117.52578,093.3 030.0,093.3,030.0,475.000,478.920,,6.9506,,6.9530,,6.9518,34.2670,,34.2728,34.2593,,34.2613,34.2671,0.4943,,0.5172,0.5292,0.4906,,0.5191,0.5293,0.5293,21.500,22.7664,23.1263,21.338,24.3607,23.1269,23.1266,,,,, ,, , ,26.8543,,26.8479,,0.6896,84.1639,,,,2.0181E+03,,2.0372E-03,,6.9056,6.9079,0.9172,126.300,7.279,7.224,,,,,,,,,,,,
CalCOFI,2101RL,005,,2101_005u,16-Jan-2021 19:45:47,16-Jan-2021 11:45:47,32.84796,-117.52577,093.3 030.0,093.3,030.0,474.000,477.911,,6.9599,,6.9580,,6.9590,34.2681,,34.2739,34.2596,,34.2616,34.2678,0.4956,,0.5186,0.5306,0.4975,,0.5264,0.5364,0.5335,21.553,22.8219,23.1809,21.638,24.4197,23.4389,23.3099,,,,, ,, , ,26.8539,,26.8474,,0.6894,84.1693,,,,2.0176E+03,,4.6648E-03,,6.9149,6.9130,0.9172,126.337,7.299,7.327,,,,,,,,,,,,
CalCOFI,2101RL,005,,2101_005u,16-Jan-2021 19:45:48,16-Jan-2021 11:45:48,32.84796,-117.52576,093.3 030.0,093.3,030.0,473.000,476.902,,6.9756,,6.9736,,6.9746,34.2685,,34.2743,34.2612,,34.2632,34.2688,0.4960,,0.5190,0.5310,0.4935,,0.5221,0.5323,0.5317,21.573,22.8428,23.2014,21.461,24.4419,23.2548,23.2281,,,,, ,, , ,26.8521,,26.8466,,0.6892,84.1730,,,,2.0182E+03,,5.3373E-03,,6.9306,6.9287,0.9172,126.507,7.308,7.270,,,,,,,,,,,,
CalCOFI,2101RL,005,,2101_005u,16-Jan-2021 19:45:49,16-Jan-2021 11:45:49,32.84796,-117.52576,093.3 030.0,093.3,030.0,472.000,475.892,,6.9827,,6.9831,,6.9829,34.2691,,34.2749,34.2615,,34.2635,34.2692,0.4951,,0.5181,0.5301,0.4956,,0.5244,0.5345,0.5323,21.531,22.7989,23.1582,21.553,24.3952,23.3505,23.2544,,,,, ,, , ,26.8515,,26.8455,,0.6892,84.1730,,,,2.0182E+03,,3.4168E-03,,6.9378,6.9383,0.9172,126.549,7.295,7.302,,,,,,,,,,,,
CalCOFI,2101RL,005,,2101_005u,16-Jan-2021 19:45:49,16-Jan-2021 11:45:49,32.84796,-117.52576,093.3 030.0,093.3,030.0,471.000,474.883,,6.9933,,6.9914,,6.9924,34.2702,,34.2760,34.2623,,34.2643,34.2702,0.5003,,0.5235,0.5354,0.4989,,0.5279,0.5379,0.5367,21.759,23.0375,23.3929,21.699,24.6488,23.5023,23.4476,,,,, ,, , ,26.8509,,26.8450,,0.6898,84.1599,,,,2.0173E+03,,1.3091E-03,,6.9485,6.9466,0.9172,126.603,7.374,7.353,,,,,,,,,,,,
CalCOFI,2101RL,005,,2101_005u,16-Jan-2021 19:45:50,16-Jan-2021 11:45:50,32.84796,-117.52576,093.3 030.0,093.3,030.0,470.000,473.873,,7.0019,,7.0053,,7.0036,34.2697,,34.2755,34.2619,,34.2639,34.2697,0.5033,,0.5267,0.5385,0.5064,,0.5358,0.5457,0.5421,21.888,23.1726,23.5256,22.025,24.7922,23.8413,23.6835,,,,, ,, , ,26.8494,,26.8428,,0.6892,84.1724,,,,2.0173E+03,,5.1412E-03,,6.9572,6.9606,0.9172,126.741,7.419,7.466,,,,,,,,,,,,
CalCOFI,2101RL,005,,2101_005u,16-Jan-2021 19:45:51,16-Jan-2021 11:45:51,32.84796,-117.52576,093.3 030.0,093.3,030.0,469.000,472.864,,7.0066,,7.0126,,7.0096,34.2691,,34.2749,34.2607,,34.2627,34.2688,0.5039,,0.5273,0.5391,0.5057,,0.5351,0.5450,0.5421,21.914,23.1998,23.5524,21.994,24.8211,23.8091,23.6808,,,,, ,, , ,26.8483,,26.8408,,0.6890,84.1776,,,,2.0156E+03,,7.1091E-03,,6.9619,6.9679,0.9172,126.837,7.429,7.456,,,,,,,,,,,,
CalCOFI,2101RL,005,,2101_005u,16-Jan-2021 19:45:52,16-Jan-2021 11:45:52,32.84796,-117.52576,093.3 030.0,093.3,030.0,468.000,471.855,,7.0160,,7.0210,,7.0185,34.2673,,34.2731,34.2594,,34.2614,34.2673,0.5011,,0.5244,0.5362,0.4991,,0.5281,0.5381,0.5372,21.795,23.0752,23.4299,21.708,24.6888,23.5117,23.4708,,,,, ,, , ,26.8455,,26.8386,,0.6899,84.1569,,,,2.0155E+03,,8.4509E-03,,6.9714,6.9764,0.9172,127.086,7.390,7.361,,,,,,,,,,,,
CalCOFI,2101RL,005,,2101_005u,16-Jan-2021 19:45:53,16-Jan-2021 11:45:53,32.84796,-117.52576,093.3 030.0,093.3,030.0,467.000,470.845,,7.0106,,7.0044,,7.0075,34.2680,,34.2738,34.2616,,34.2636,34.2687,0.5064,,0.5299,0.5417,0.5004,,0.5295,0.5394,0.5406,22.023,23.3139,23.6645,21.766,24.9423,23.5720,23.6183,,,,, ,, , ,26.8468,,26.8425,,0.6894,84.1684,,,,2.0165E+03,,8.6180E-03,,6.9661,6.9600,0.9172,126.945,7.466,7.378,,,,,,,,,,,,
CalCOFI,2101RL,005,,2101_005u,16-Jan-2021 19:45:54,16-Jan-2021 11:45:54,32.84796,-117.52578,093.3 030.0,093.3,030.0,466.000,469.836,,7.0056,,6.9894,,6.9975,34.2677,,34.2735,34.2609,,34.2629,34.2682,0.5102,,0.5339,0.5456,0.5125,,0.5423,0.5520,0.5488,22.189,23.4876,23.8354,22.289,25.1269,24.1159,23.9757,,,,, ,, , ,26.8472,,26.8440,,0.6894,84.1684,,,,2.0173E+03,,3.8506E-03,,6.9613,6.9451,0.9172,126.883,7.522,7.553,,,,,,,,,,,,
CalCOFI,2101RL,005,,2101_005u,16-Jan-2021 19:45:56,16-Jan-2021 11:45:56,32.84796,-117.52578,093.3 030.0,093.3,030.0,465.000,468.827,,7.0236,,7.0406,,7.0321,34.2675,,34.2733,34.2582,,34.2602,34.2668,0.5172,,0.5412,0.5528,0.5146,,0.5446,0.5542,0.5535,22.494,23.8069,24.1492,22.382,25.4661,24.2126,24.1809,,,,, ,, , ,26.8446,,26.8349,,0.6892,84.1735,,,,2.0173E+03,,1.0567E-02,,6.9793,6.9962,0.9172,127.137,7.628,7.593,,,,,,,,,,,,